[[{"header":{"parameterUnit":"m.s-1","parameterCategory":1,"la1":30.2991,"la2":30.254,"lo1":-89.0895,"lo2":-89.0444,"dy":0.0017,"dx":0.0017,"nx":28,"ny":28,"refTime":"2024-04-18T09:00:00:Z","depth":0,"parameterNumber":2,"parameterNumberName":"U-component_of_WINDS"},"data":[0,0,0,0,0,0,0,0,0,0,0,0,0,0,0,0,0,0,0,0,0,0,0,0,0,0,0,0,0,0,0,0,0,0,0,0,0,0,0,0,0,0,0,0,0,0,0,0,0,0,0,0,0,0,0,0,0,0,-0.6827,-0.6826,0,-0.6694,-0.6693,-0.6691,-0.6627,-0.6627,-0.6627,-0.6627,-0.6488,-0.6485,-0.6481,0,0,0,0,0,0,0,0,0,0,0,0,0,-0.7024,-0.7021,-0.6828,-0.6826,-0.6824,-0.6694,-0.6693,-0.6691,-0.6627,-0.6627,-0.6627,-0.6627,-0.649,-0.6485,-0.6481,0,0,0,0,0,0,0,0,0,0,0,0,0,-0.692,-0.702,-0.6828,-0.6777,-0.6771,-0.6695,-0.6693,-0.669,-0.6627,-0.6627,-0.6627,-0.6627,-0.6491,-0.6486,-0.648,-0.6444,0,0,-0.6463,-0.6461,0,0,0,0,0,0,0,0,-0.6926,-0.6912,-0.6786,-0.678,-0.6773,-0.6677,-0.6711,-0.6608,-0.6627,-0.6682,-0.6627,-0.6627,-0.6551,-0.6541,-0.6515,-0.6438,-0.6432,-0.6462,-0.6459,-0.6457,-0.6455,0,0,0,0,0,0,0,-0.6933,-0.6918,-0.6775,-0.6784,-0.6777,-0.676,-0.6745,-0.6691,-0.6617,-0.6677,-0.6672,-0.6657,-0.6548,-0.6521,-0.6512,-0.643,-0.6463,-0.6458,-0.6454,-0.6452,-0.6313,-0.6313,0,0,0,0,0,0,-0.6949,-0.6924,-0.6779,-0.6771,-0.6851,-0.6756,-0.674,-0.6708,-0.6618,-0.6604,-0.6657,-0.6655,-0.653,-0.6518,-0.6506,-0.6457,-0.6457,-0.6451,-0.6448,-0.6313,-0.6313,-0.6313,0,0,0,0,0,0,-0.6953,-0.6936,-0.6784,-0.6846,-0.6825,-0.6753,-0.6718,-0.6705,-0.6679,-0.6603,-0.6589,-0.6644,-0.653,-0.6514,-0.646,-0.6451,-0.6449,-0.6444,-0.6314,-0.6313,-0.6313,-0.6358,0,0,0,0,0,0,-0.6959,-0.6938,-0.6925,-0.6846,-0.6822,-0.6741,-0.6717,-0.6703,-0.6669,-0.6665,-0.6587,-0.6574,-0.6529,-0.6468,-0.6454,-0.6443,-0.6439,-0.6314,-0.6314,-0.6313,-0.6357,-0.6359,-0.6361,0,0,0,0,0,-0.6966,-0.6943,-0.6924,-0.6907,-0.6804,-0.6741,-0.6727,-0.6676,-0.6669,-0.6654,-0.6605,-0.6576,-0.6455,-0.6463,-0.6447,-0.6434,-0.6315,-0.6314,-0.6313,-0.6356,-0.6359,-0.6361,0,0,0,0,0,0,-0.7022,-0.6932,-0.691,-0.6861,-0.6809,-0.673,-0.671,-0.6681,-0.663,-0.6628,-0.6566,-0.6549,-0.65,-0.6461,-0.6473,-0.6393,-0.6382,-0.6378,-0.642,-0.6422,-0.6424,-0.6434,-0.6435,0,0,0,0,0,-0.7029,-0.6986,-0.6909,-0.6872,-0.6847,-0.6783,-0.6754,-0.6719,-0.6663,-0.664,-0.6588,-0.6533,-0.6482,-0.645,-0.6399,-0.6352,-0.6333,-0.6334,-0.6337,-0.6339,-0.6336,-0.6305,-0.6305,-0.631,-0.631,-0.631,0,0,-0.7042,-0.6987,-0.6963,-0.6882,-0.6838,-0.6793,-0.6765,-0.672,-0.6686,-0.6633,-0.6578,-0.6538,-0.6473,-0.6421,-0.6395,-0.6387,-0.633,-0.6338,-0.634,-0.6335,-0.6305,-0.6304,-0.6304,-0.631,-0.631,-0.631,0,0,-0.7042,-0.6997,-0.6961,-0.6918,-0.6851,-0.6808,-0.68,-0.6725,-0.6696,-0.664,-0.6599,-0.6557,-0.6471,-0.6426,-0.6392,-0.6375,-0.6345,-0.636,-0.637,-0.6342,-0.6341,-0.634,-0.6333,-0.6331,-0.6357,-0.6357,-0.6357,0,-0.7067,-0.6999,-0.6946,-0.6903,-0.6868,-0.6818,-0.678,-0.674,-0.666,-0.6637,-0.6629,-0.652,-0.6472,-0.6409,-0.6404,-0.6379,-0.6366,-0.6368,-0.6346,-0.6344,-0.6343,-0.6335,-0.6332,-0.6359,-0.6359,-0.6359,-0.6359,0,-0.7032,-0.6985,-0.6964,-0.6888,-0.6851,-0.681,-0.675,-0.6718,-0.6687,-0.6645,-0.6587,-0.6529,-0.6465,-0.6447,-0.6416,-0.6378,-0.6375,-0.6358,-0.6344,-0.6345,-0.6337,-0.6333,-0.6362,-0.6361,-0.6361,-0.636,0,0,-0.7064,-0.6959,-0.6952,-0.6916,-0.6839,-0.6801,-0.6758,-0.6696,-0.6669,-0.6615,-0.6576,-0.6504,-0.6487,-0.6448,-0.6411,-0.6387,-0.6374,-0.6371,-0.6369,-0.6373,-0.6327,-0.634,-0.6338,-0.6355,-0.6354,-0.6354,-0.6332,0,-0.7053,-0.6974,-0.6925,-0.6865,-0.6821,-0.6772,-0.6734,-0.6682,-0.6641,-0.6597,-0.6551,-0.65,-0.6482,-0.6458,-0.6432,-0.6382,-0.6364,-0.6383,-0.6317,-0.6315,-0.6334,-0.6333,-0.6347,-0.633,-0.6329,-0.6328,-0.6328,0,-0.703,-0.6978,-0.6914,-0.6839,-0.6819,-0.6786,-0.6724,-0.6682,-0.6621,-0.6593,-0.655,-0.6512,-0.6463,-0.6454,-0.6385,-0.6399,-0.6368,-0.634,-0.6338,-0.6329,-0.6321,-0.6323,-0.6324,-0.6321,-0.6322,-0.6322,-0.6323,0,-0.7059,-0.6972,-0.6922,-0.6893,-0.6806,-0.6783,-0.6746,-0.6685,-0.665,-0.6595,-0.6572,-0.6512,-0.648,-0.6434,-0.6381,-0.638,-0.6316,-0.6303,-0.629,-0.6291,-0.6278,-0.6279,-0.6272,-0.6261,-0.6261,-0.6261,-0.6261,0,-0.7051,-0.7014,-0.6933,-0.6903,-0.6858,-0.6801,-0.6759,-0.6717,-0.6663,-0.6622,-0.6577,-0.654,-0.6472,-0.6426,-0.6384,-0.6332,-0.6318,-0.6293,-0.6282,-0.6296,-0.6299,-0.6275,-0.6274,-0.626,-0.626,-0.626,-0.626,0,-0.7075,-0.702,-0.6962,-0.6884,-0.6864,-0.6834,-0.6767,-0.6734,-0.6691,-0.664,-0.6624,-0.6555,-0.6498,-0.6441,-0.6365,-0.6336,-0.6285,-0.627,-0.6305,-0.6299,-0.6288,-0.629,-0.6264,-0.6258,-0.6252,-0.6253,-0.6253,0,-0.7074,-0.7044,-0.6962,-0.6932,-0.6895,-0.6847,-0.6811,-0.6753,-0.6718,-0.6645,-0.6621,-0.6561,-0.6509,-0.6421,-0.6363,-0.6304,-0.6287,-0.6282,-0.6278,-0.6292,-0.6285,-0.6287,-0.6283,-0.6284,-0.6284,-0.6285,-0.6285,0,-0.7076,-0.705,-0.7001,-0.6941,-0.6899,-0.685,-0.6798,-0.6776,-0.6708,-0.6669,-0.6611,-0.6571,-0.6493,-0.6433,-0.6366,-0.6326,-0.6293,-0.6287,-0.628,-0.6294,-0.6315,-0.6302,-0.6309,-0.6287,-0.6287,-0.6287,-0.6287,-0.6287,-0.7087,-0.7057,-0.6994,-0.694,-0.6895,-0.6848,-0.6813,-0.6765,-0.6715,-0.6647,-0.6616,-0.6557,-0.6494,-0.6402,-0.6362,-0.6314,-0.6305,-0.6296,-0.6294,-0.6292,-0.6295,-0.6324,-0.6302,-0.6302,-0.6301,-0.6301,-0.6301,0,-0.7086,-0.7043,-0.6994,-0.6923,-0.6879,-0.6853,-0.6794,-0.676,-0.6708,-0.6654,-0.6604,-0.6536,-0.6477,-0.6415,-0.6352,-0.6325,-0.6309,-0.6311,-0.6312,-0.6302,-0.6307,-0.6318,-0.6325,-0.6325,-0.6325,-0.6325,-0.6325,-0.6325,-0.708,-0.7028,-0.6994,-0.6919,-0.6876,-0.6818,-0.6786,-0.6742,-0.6697,-0.6623,-0.6575,-0.6535,-0.6476,-0.6408,-0.6353,-0.6336,-0.6314,-0.6321,-0.6299,-0.6304,-0.6302,-0.6301,-0.6311,-0.6317,-0.6317,-0.6299,-0.6298,-0.6298]},{"header":{"parameterUnit":"m.s-1","parameterCategory":1,"la1":30.2991,"la2":30.254,"lo1":-89.0895,"lo2":-89.0444,"dy":0.0017,"dx":0.0017,"nx":28,"ny":28,"refTime":"2024-04-18T09:00:00:Z","depth":0,"parameterNumber":3,"parameterNumberName":"V-component_of_WINDS"},"data":[0,0,0,0,0,0,0,0,0,0,0,0,0,0,0,0,0,0,0,0,0,0,0,0,0,0,0,0,0,0,0,0,0,0,0,0,0,0,0,0,0,0,0,0,0,0,0,0,0,0,0,0,0,0,0,0,0,0,3.1897,3.1896,0,3.185,3.1849,3.1849,3.1808,3.1808,3.1808,3.1807,3.1756,3.1755,3.1754,0,0,0,0,0,0,0,0,0,0,0,0,0,3.1949,3.1948,3.1897,3.1896,3.1895,3.185,3.1849,3.1849,3.1809,3.1808,3.1807,3.1807,3.1756,3.1755,3.1754,0,0,0,0,0,0,0,0,0,0,0,0,0,3.1917,3.1948,3.1897,3.187,3.1867,3.185,3.1849,3.1848,3.1809,3.1808,3.1807,3.1807,3.1756,3.1755,3.1754,3.1758,0,0,3.1749,3.1749,0,0,0,0,0,0,0,0,3.1918,3.1915,3.1875,3.1872,3.1869,3.1834,3.1849,3.1818,3.1809,3.1831,3.1807,3.1806,3.1782,3.1779,3.1771,3.1756,3.1753,3.1749,3.1748,3.1748,3.1747,0,0,0,0,0,0,0,3.1921,3.1916,3.1878,3.1874,3.187,3.186,3.1854,3.1843,3.1811,3.1829,3.1826,3.1821,3.178,3.1773,3.177,3.1753,3.1749,3.1748,3.1747,3.1746,3.174,3.1741,0,0,0,0,0,0,3.1928,3.1919,3.1879,3.1877,3.1893,3.1859,3.1853,3.1846,3.1811,3.1805,3.1822,3.1819,3.1775,3.1771,3.1768,3.1772,3.1748,3.1746,3.1746,3.1739,3.174,3.1741,0,0,0,0,0,0,3.1929,3.1924,3.1881,3.1897,3.1891,3.1859,3.1851,3.1845,3.1838,3.1805,3.1799,3.182,3.1775,3.177,3.1761,3.1769,3.1746,3.1744,3.1738,3.174,3.1741,3.1779,0,0,0,0,0,0,3.193,3.1925,3.1927,3.1897,3.189,3.1877,3.1852,3.1845,3.1836,3.1832,3.1802,3.1796,3.1774,3.1764,3.176,3.1767,3.1743,3.1738,3.1739,3.174,3.1777,3.1782,3.1785,0,0,0,0,0,3.1933,3.1939,3.1927,3.1923,3.1892,3.1877,3.1873,3.1848,3.1836,3.1838,3.1817,3.1797,3.1769,3.1763,3.1759,3.1765,3.1737,3.1739,3.174,3.1775,3.1781,3.1785,0,0,0,0,0,0,3.1969,3.1934,3.1921,3.1918,3.1901,3.187,3.1871,3.1854,3.1839,3.1836,3.1805,3.1799,3.1794,3.1778,3.1773,3.1769,3.175,3.1751,3.1779,3.1784,3.1788,3.1792,3.1742,0,0,0,0,0,3.1977,3.1969,3.1938,3.1939,3.1931,3.1903,3.1895,3.1878,3.1859,3.1851,3.1829,3.1811,3.1798,3.179,3.1776,3.1775,3.1768,3.1777,3.1781,3.1785,3.1786,3.1785,3.179,3.1746,3.1746,3.1746,0,0,3.1992,3.1972,3.1969,3.1945,3.193,3.1922,3.1897,3.1889,3.1883,3.1849,3.1841,3.1825,3.1801,3.1797,3.1794,3.1784,3.1797,3.1787,3.179,3.1789,3.1788,3.1792,3.1795,3.1747,3.1747,3.1747,0,0,3.2017,3.2001,3.2,3.1986,3.1964,3.1945,3.1945,3.1917,3.1906,3.1897,3.1872,3.1864,3.1842,3.1827,3.1816,3.1837,3.1819,3.1834,3.1855,3.1855,3.1858,3.1861,3.187,3.1873,3.1835,3.1835,3.1835,0,3.2039,3.2027,3.2001,3.1996,3.1986,3.1957,3.1956,3.1943,3.1917,3.1911,3.1901,3.1874,3.1856,3.1849,3.1854,3.1846,3.1845,3.1837,3.186,3.1863,3.1865,3.1873,3.1876,3.1837,3.1837,3.1836,3.1836,0,3.2055,3.2047,3.2049,3.2027,3.2018,3.2014,3.1988,3.1981,3.1965,3.1948,3.194,3.1918,3.19,3.1896,3.1879,3.1887,3.1882,3.1866,3.1847,3.1872,3.1879,3.1881,3.184,3.1839,3.1838,3.1838,0,0,3.2101,3.2066,3.2067,3.2057,3.2031,3.2024,3.202,3.2004,3.1999,3.1982,3.1978,3.1961,3.1947,3.1935,3.1916,3.1916,3.1936,3.1901,3.19,3.1909,3.1944,3.1957,3.1961,3.1923,3.1924,3.1924,3.1947,0,3.2122,3.2114,3.2091,3.2089,3.2082,3.2055,3.2051,3.2035,3.2019,3.201,3.1991,3.198,3.1962,3.1955,3.1954,3.1934,3.1943,3.1932,3.1919,3.1919,3.1927,3.1964,3.1977,3.1999,3.1949,3.1949,3.195,0,3.2145,3.2133,3.2131,3.2107,3.2103,3.21,3.2084,3.2076,3.2057,3.2045,3.2033,3.2013,3.2006,3.1989,3.198,3.1973,3.1967,3.1956,3.1957,3.1955,3.1936,3.1964,3.2006,3.201,3.1953,3.1953,3.1953,0,3.2181,3.2162,3.2159,3.2151,3.2123,3.2122,3.211,3.209,3.2082,3.2068,3.2063,3.2047,3.2039,3.2028,3.2004,3.1993,3.1998,3.1978,3.1988,3.1989,3.1991,3.1991,3.2033,3.1985,3.1985,3.1985,3.1985,0,3.2207,3.2207,3.2175,3.2173,3.2172,3.2147,3.2146,3.2132,3.2115,3.2109,3.2084,3.2079,3.2048,3.204,3.2021,3.2017,3.2013,3.2004,3.1999,3.2007,3.2008,3.2002,3.2,3.1986,3.1986,3.1986,3.1986,0,3.2246,3.2224,3.2219,3.2194,3.2187,3.2188,3.2165,3.2163,3.2146,3.2139,3.2136,3.2109,3.2098,3.2073,3.2055,3.2043,3.2044,3.2034,3.2051,3.2048,3.206,3.206,3.21,3.2104,3.2053,3.2054,3.2054,0,3.2265,3.2264,3.2239,3.2235,3.2224,3.2216,3.2209,3.2184,3.2177,3.2156,3.2156,3.2143,3.2132,3.2116,3.2094,3.208,3.2071,3.2086,3.2069,3.2077,3.2073,3.2073,3.2074,3.209,3.2091,3.2091,3.2092,0,3.23,3.229,3.2281,3.2269,3.2261,3.2249,3.2236,3.2234,3.2205,3.2199,3.2188,3.218,3.2162,3.215,3.2134,3.212,3.2102,3.2098,3.2099,3.2107,3.2118,3.2114,3.2062,3.2097,3.2096,3.2096,3.2096,3.2095,3.233,3.233,3.2312,3.2303,3.2291,3.228,3.2277,3.226,3.2251,3.2236,3.2222,3.2213,3.2195,3.2171,3.2159,3.2152,3.2142,3.2144,3.2145,3.2146,3.215,3.2119,3.2148,3.2148,3.2148,3.2148,3.2148,0,3.2366,3.2354,3.2346,3.233,3.2323,3.2307,3.2292,3.2287,3.228,3.2265,3.2256,3.2244,3.2233,3.2211,3.2198,3.2196,3.2187,3.2194,3.2194,3.2191,3.2159,3.2159,3.2201,3.2201,3.2201,3.2201,3.2201,3.2201,3.2384,3.2382,3.237,3.2362,3.235,3.2342,3.2335,3.2325,3.2314,3.2302,3.2294,3.228,3.2262,3.2248,3.2237,3.2231,3.2228,3.2237,3.2228,3.2198,3.2193,3.2188,3.2189,3.2236,3.2236,3.2261,3.2262,3.2262]}]]